SL-18 DEB

基本信息
目录编号:
28292
目录名称:
SL-18 DEB
国际标识:
1993-014V
轨道中心:
EARTH
物体状态:
在轨
发射日期:
1993-03-25 UTC
轨道信息
数据来源: 国际轨道数据
星历时间: 2026-07-12T10:47:44+0800
半长轴: 7113.07km
偏心率: 0.0129297
轨道倾角: 75.756°
近地点辐角: 2.575°
升交点赤经: 358.815°
平近点角: 357.606°
近地点: 642.963km
远地点: 826.903km
周期: 99.505分钟
每日圈数: 14.471622
详细信息
发射场:
PKMTR
轨道高度:
LEO
数据来源:
AOE Integration Group
参考系:
TEME
时间系统:
UTC
历元类型:
SGP4
2D轨道图
3D轨道图
轨道高度分析图
轨道倾角分析图
轨道综合分析图
查看轨道综合分析图